Overview Statistics Trail Chart Weather Telemetry Raw packets
 

This is the latest recevied weather packets stored in our database for station/object KC4GS-13. If no packets are shown the sender has not sent any weather packets the latest 10 day(s).

<< 1 2 3 4 5 6 >>
Time Temp. Humidity Pressure Rain* Wind** Luminosity Snow
1788618838 30° C 78% 1015.9 hPa 0 mm - 52 W/m² -
1788618537 29.44° C 80% 1015.8 hPa 0 mm - 55 W/m² -
1788618236 28.89° C 81% 1016 hPa 0 mm - 65 W/m² -
1788617932 28.89° C 81% 1015.8 hPa 0 mm - 50 W/m² -
1788617627 28.33° C 83% 1016 hPa 0 mm - 66 W/m² -
1788617323 28.33° C 84% 1016.1 hPa 0 mm - 53 W/m² -
1788617018 27.78° C 87% 1016 hPa 0 mm - 58 W/m² -
1788616716 27.22° C 89% 1015.9 hPa 0 mm - 65 W/m² -
1788616412 26.67° C 92% 1016.1 hPa 0 mm - 42 W/m² -
1788616107 26.11° C 94% 1016.1 hPa 0 mm - 43 W/m² -
1788615800 25.56° C 95% 1016.1 hPa 0 mm - 42 W/m² -
1788615495 25.56° C 96% 1015.9 hPa 0 mm - 41 W/m² -
1788615191 25.56° C 96% 1016.2 hPa 0 mm - 42 W/m² -
1788614889 25° C 97% 1016.2 hPa 0 mm - 39 W/m² -
1788614585 25° C 97% 1016.1 hPa 0 mm - 62 W/m² -
1788614280 25° C 97% 1016.1 hPa 0 mm - 35 W/m² -
1788613975 24.44° C 97% 1016.5 hPa 0 mm - 36 W/m² -
1788613670 24.44° C 97% 1016.6 hPa 0 mm - 34 W/m² -
1788613369 24.44° C 97% 1016.7 hPa 0 mm - 35 W/m² -
1788613064 23.89° C 97% 1016.5 hPa 0 mm - 33 W/m² -
1788612759 23.89° C 97% 1016.4 hPa 0 mm - 34 W/m² -
1788612456 23.89° C 97% 1016.6 hPa 0 mm - 36 W/m² -
1788612151 23.89° C 97% 1016.7 hPa 0 mm - 43 W/m² -
1788611846 23.89° C 97% 1016.5 hPa 0 mm - 50 W/m² -
1788611544 23.89° C 97% 1016.3 hPa 0 mm - 52 W/m² -

* Rain latest hour (hover to see other rain measurements)
** Current wind speed in m/s (hover to see current wind gust speed)